Weather History for Walterboro, SC

Change the Weather History Date:

Wednesday, May 15, 2013

  Actual Average Record
Temperature  
Mean Temperature 71 °F -  
Max Temperature 87 °F 84 °F 87 °F (2013)
Min Temperature 55 °F 62 °F 55 °F (2013)
Cooling Degree Days 6    
Growing Degree Days 21 (Base 50)    
Moisture  
Dew Point 56 °F    
Average Humidity 63    
Maximum Humidity 94    
Minimum Humidity 38    
Precipitation  
Precipitation 0.00 in - - ()
Sea Level Pressure  
Sea Level Pressure 30.11 in    
Wind  
Wind Speed 6 mph (SW)    
Max Wind Speed 16 mph    
Max Gust Speed 21 mph    
Visibility 10 miles    
Events      
Averages and records for this station are not official NWS values.
T = Trace of Precipitation, MM = Missing Value Source: NWS Daily Summary

Daily Weather History Graph

Daily Weather History Graph

Search for Another Location

Airport:

Trip Planner

Search our weather history database for the weather conditions in past years. The results will help you decide how hot, cold, wet, or windy it might be!

Date:

Astronomy

May. 15, 2013 Rise Set
Actual Time 6:23 AM EDT 8:15 PM EDT
Civil Twilight 5:55 AM EDT 8:42 PM EDT
Nautical Twilight 5:23 AM EDT 9:15 PM EDT
Astronomical Twilight 4:48 AM EDT 9:50 PM EDT
Moon 10:54 AM EDT (5/15) 12:02 AM EDT (5/15)
Length of Visible Light 14h 46m
Length of Day
13h 51m
Waxing Crescent, 26% of the Moon is Illuminated
May 15
Waxing Crescent
May 18
First Quarter
May 25
Full
May 31
Last Quarter
Jun 8
New

Hourly Weather History & Observations

Time (EDT) Temp. Heat Index Dew Point Humidity Pressure Visibility Wind Dir Wind Speed Gust Speed Precip Events Conditions
12:15 AM 59.0 °F - 51.8 °F 77% 30.17 in 10.0 mi South 4.6 mph - N/A   Clear
12:35 AM 59.0 °F - 51.8 °F 77% 30.17 in 10.0 mi South 3.5 mph - N/A   Clear
12:55 AM 55.4 °F - 51.8 °F 88% 30.17 in 10.0 mi Calm Calm - N/A   Clear
1:15 AM 55.4 °F - 51.8 °F 88% 30.17 in 10.0 mi Calm Calm - N/A   Clear
1:35 AM 55.4 °F - 51.8 °F 88% 30.16 in 10.0 mi Calm Calm - N/A   Clear
1:55 AM 55.4 °F - 51.8 °F 88% 30.16 in 10.0 mi Calm Calm - N/A   Clear
2:15 AM 55.4 °F - 51.8 °F 88% 30.15 in 10.0 mi South 3.5 mph - N/A   Clear
2:35 AM 55.4 °F - 53.6 °F 94% 30.15 in 10.0 mi Calm Calm - N/A   Clear
2:55 AM 55.4 °F - 53.6 °F 94% 30.15 in 10.0 mi SW 4.6 mph - N/A   Clear
3:15 AM 55.4 °F - 53.6 °F 94% 30.16 in 10.0 mi Calm Calm - N/A   Clear
3:35 AM 57.2 °F - 53.6 °F 88% 30.16 in 10.0 mi SW 5.8 mph - N/A   Clear
3:55 AM 59.0 °F - 53.6 °F 82% 30.15 in 10.0 mi SW 8.1 mph - N/A   Clear
4:15 AM 59.0 °F - 53.6 °F 82% 30.16 in 10.0 mi SW 9.2 mph - N/A   Clear
4:35 AM 59.0 °F - 53.6 °F 82% 30.16 in 10.0 mi SW 9.2 mph - N/A   Clear
4:55 AM 59.0 °F - 53.6 °F 82% 30.16 in 10.0 mi SW 6.9 mph - N/A   Clear
5:15 AM 57.2 °F - 53.6 °F 88% 30.16 in 10.0 mi SW 5.8 mph - N/A   Clear
5:35 AM 55.4 °F - 53.6 °F 94% 30.16 in 10.0 mi SSW 6.9 mph - N/A   Clear
5:55 AM 55.4 °F - 53.6 °F 94% 30.17 in 10.0 mi SW 5.8 mph - N/A   Clear
6:15 AM 57.2 °F - 53.6 °F 88% 30.17 in 10.0 mi SW 5.8 mph - N/A   Clear
6:35 AM 57.2 °F - 51.8 °F 82% 30.18 in 10.0 mi WSW 5.8 mph - N/A   Clear
6:55 AM 57.2 °F - 51.8 °F 82% 30.19 in 10.0 mi WSW 5.8 mph - N/A   Clear
7:15 AM 59.0 °F - 51.8 °F 77% 30.19 in 10.0 mi WSW 5.8 mph - N/A   Clear
7:35 AM 60.8 °F - 51.8 °F 72% 30.19 in 10.0 mi SW 6.9 mph - N/A   Clear
7:55 AM 60.8 °F - 51.8 °F 72% 30.18 in 10.0 mi SW 8.1 mph - N/A   Clear
8:15 AM 62.6 °F - 51.8 °F 68% 30.19 in 10.0 mi SW 6.9 mph - N/A   Clear
8:35 AM 64.4 °F - 51.8 °F 64% 30.19 in 10.0 mi SW 5.8 mph - N/A   Clear
8:55 AM 68.0 °F - 51.8 °F 56% 30.19 in 10.0 mi SW 6.9 mph - N/A   Clear
9:15 AM 69.8 °F - 51.8 °F 53% 30.19 in 10.0 mi WSW 9.2 mph - N/A   Clear
9:35 AM 71.6 °F - 51.8 °F 50% 30.19 in 10.0 mi WSW 10.4 mph - N/A   Clear
9:55 AM 73.4 °F - 50.0 °F 44% 30.19 in 10.0 mi WSW 13.8 mph - N/A   Clear
10:15 AM 73.4 °F - 51.8 °F 47% 30.19 in 10.0 mi West 16.1 mph 20.7 mph N/A   Clear
10:35 AM 75.2 °F - 51.8 °F 44% 30.18 in 10.0 mi SW 15.0 mph 19.6 mph N/A   Clear
11:15 AM 78.8 °F - 53.6 °F 42% 30.17 in 10.0 mi WSW 9.2 mph 19.6 mph N/A   Clear
11:35 AM 78.8 °F - 53.6 °F 42% 30.16 in 10.0 mi West 12.7 mph - N/A   Clear
11:55 AM 80.6 °F 80.5 °F 55.4 °F 42% 30.15 in 10.0 mi WSW 12.7 mph - N/A   Clear
12:15 PM 80.6 °F 80.5 °F 55.4 °F 42% 30.15 in 10.0 mi West 13.8 mph 19.6 mph N/A   Clear
12:35 PM 82.4 °F 82.0 °F 57.2 °F 42% 30.14 in 10.0 mi West 11.5 mph 18.4 mph N/A   Clear
12:55 PM 82.4 °F 82.0 °F 57.2 °F 42% 30.13 in 10.0 mi WSW 10.4 mph 20.7 mph N/A   Clear
1:15 PM 84.2 °F 83.5 °F 57.2 °F 40% 30.12 in 10.0 mi West 6.9 mph 20.7 mph N/A   Clear
1:35 PM 84.2 °F 83.5 °F 57.2 °F 40% 30.11 in 10.0 mi WSW 10.4 mph 18.4 mph N/A   Clear
1:55 PM 86.0 °F 85.4 °F 59.0 °F 40% 30.10 in 10.0 mi WSW 13.8 mph 19.6 mph N/A   Clear
2:15 PM 86.0 °F 85.4 °F 59.0 °F 40% 30.09 in 10.0 mi SW 13.8 mph 18.4 mph N/A   Clear
2:35 PM 86.0 °F 85.4 °F 59.0 °F 40% 30.08 in 10.0 mi West 12.7 mph 17.3 mph N/A   Clear
2:55 PM 87.8 °F 87.1 °F 59.0 °F 38% 30.07 in 10.0 mi SW 11.5 mph 16.1 mph N/A   Clear
3:15 PM 87.8 °F 87.1 °F 59.0 °F 38% 30.06 in 10.0 mi WSW 11.5 mph 17.3 mph N/A   Clear
3:35 PM 87.8 °F 87.1 °F 59.0 °F 38% 30.06 in 10.0 mi WSW 9.2 mph 16.1 mph N/A   Clear
3:55 PM 87.8 °F 87.1 °F 59.0 °F 38% 30.05 in 10.0 mi SW 10.4 mph 17.3 mph N/A   Clear
4:15 PM 87.8 °F 87.1 °F 59.0 °F 38% 30.04 in 10.0 mi WSW 9.2 mph 16.1 mph N/A   Clear
4:35 PM 87.8 °F 87.1 °F 59.0 °F 38% 30.03 in 10.0 mi WSW 8.1 mph - N/A   Clear
4:55 PM 87.8 °F 87.1 °F 59.0 °F 38% 30.03 in 10.0 mi WSW 10.4 mph - N/A   Clear
5:15 PM 87.8 °F 87.1 °F 59.0 °F 38% 30.03 in 10.0 mi West 10.4 mph - N/A   Clear
5:35 PM 87.8 °F 87.1 °F 59.0 °F 38% 30.02 in 10.0 mi WSW 12.7 mph 17.3 mph N/A   Clear
5:55 PM 87.8 °F 87.1 °F 59.0 °F 38% 30.02 in 10.0 mi WSW 9.2 mph - N/A   Clear
6:15 PM 87.8 °F 87.1 °F 59.0 °F 38% 30.02 in 10.0 mi WSW 10.4 mph 16.1 mph N/A   Clear
6:35 PM 87.8 °F 87.1 °F 59.0 °F 38% 30.01 in 10.0 mi WSW 6.9 mph - N/A   Clear
6:55 PM 86.0 °F 85.4 °F 59.0 °F 40% 30.01 in 10.0 mi WSW 11.5 mph - N/A   Clear
7:15 PM 82.4 °F 83.4 °F 62.6 °F 51% 30.01 in 10.0 mi South 9.2 mph - N/A   Clear
7:35 PM 80.6 °F 82.3 °F 64.4 °F 58% 30.02 in 10.0 mi South 10.4 mph - N/A   Clear
7:55 PM 78.8 °F - 62.6 °F 57% 30.02 in 10.0 mi South 8.1 mph - N/A   Clear
8:15 PM 77.0 °F - 62.6 °F 61% 30.02 in 10.0 mi South 8.1 mph - N/A   Clear
8:35 PM 75.2 °F - 62.6 °F 65% 30.03 in 10.0 mi South 6.9 mph - N/A   Clear
8:55 PM 73.4 °F - 62.6 °F 69% 30.03 in 10.0 mi South 5.8 mph - N/A   Clear
9:15 PM 73.4 °F - 62.6 °F 69% 30.04 in 10.0 mi South 6.9 mph - N/A   Clear
9:35 PM 71.6 °F - 62.6 °F 73% 30.04 in 10.0 mi South 6.9 mph - N/A   Clear
9:55 PM 69.8 °F - 62.6 °F 78% 30.05 in 10.0 mi South 6.9 mph - N/A   Clear
10:15 PM 69.8 °F - 62.6 °F 78% 30.05 in 10.0 mi SSW 6.9 mph - N/A   Clear
10:35 PM 69.8 °F - 62.6 °F 78% 30.05 in 10.0 mi South 6.9 mph - N/A   Clear
10:55 PM 68.0 °F - 62.6 °F 83% 30.05 in 10.0 mi South 5.8 mph - N/A   Clear
11:15 PM 68.0 °F - 62.6 °F 83% 30.05 in 10.0 mi SSW 5.8 mph - N/A   Clear
11:35 PM 68.0 °F - 62.6 °F 83% 30.05 in 10.0 mi SSW 6.9 mph - N/A   Clear
11:55 PM 68.0 °F - 60.8 °F 78% 30.04 in 10.0 mi SSW 8.1 mph - N/A   Clear